Location: Orange
(33.2833°S, 149.1000°E)
Time: 19:12:07
(UTC+11:00)

Hubble Space Telescope - Pass Details

Date: 01 October 2022
Orbit: 530 x 534 km, 28.5° (Epoch: 04 December)

Event Time Altitude Azimuth Distance (km) Brightness Sun altitude
Exits shadow 04:16:09 25° 344° (NNW) 1,111 2.1 -18.4°
Maximum altitude 04:17:18 29° 14° (NNE) 1,005 2.1 -18.1°
Drops below altitude 10° 04:20:54 10° 74° (ENE) 1,790 4.3 -17.4°
Sets 04:23:22 0° 85° (E) 2,683 5.7 -16.9°
